Preview of NWS' New Version of Forecast
This preview is not operational and should not be used for support decisions.

Regional Weather Roundup (RWR)

Issued by Gray - Portland, ME (GYX)

                            
899 
ASUS41 KGYX 261210
RWRGYX
WEATHER ROUNDUP FOR MAINE AND NEW HAMPSHIRE
NATIONAL WEATHER SERVICE GRAY ME
800 AM EDT SAT MAY 26 2018

MEZ002-005-006-010-012-015-018-020-021-024-026-027-029-261300-
MAINE
  
CITY           SKY/WX    TMP DP  RH WIND       PRES   REMARKS
PORTLAND       CLOUDY    69  58  67 SW5       29.68S                  
6HR MIN TEMP:  66; 6HR MAX TEMP:  74; 6HR PCP: TRACE;                

SANFORD        FAIR      71  56  58 W6        29.71R                  
BAR HARBOR     FAIR      68  60  75 CALM      29.66R                  
WISCASSET      FAIR      65  60  84 CALM      29.69R                  
6HR MIN TEMP:  63; 6HR MAX TEMP:  69;                                

ROCKLAND       FAIR      68  59  73 SW6       29.67R                  
FRYEBURG       FAIR      66  57  72 W5        29.70S                  
6HR MIN TEMP:  64; 6HR MAX TEMP:  68; 6HR PCP: TRACE;                

LEWISTONAUBURN FAIR      68  58  70 N3        29.69R                  
AUGUSTA        FAIR      68  58  70 N5        29.68R                  
6HR MIN TEMP:  68; 6HR MAX TEMP:  73;                                

WATERVILLE     FAIR      70  59  68 W3        29.66R                  
BANGOR         CLOUDY    68  62  81 W6        29.66R                  
6HR MIN TEMP:  64; 6HR MAX TEMP:  72; 6HR PCP:  0.03;                

GREENVILLE       N/A     63  59  87 NW10G20   29.67R                  
6HR MIN TEMP:  61; 6HR MAX TEMP:  63;                                

MILLINOCKET    PTSUNNY   65  60  84 W3        29.66R                  
6HR MIN TEMP:  61; 6HR MAX TEMP:  66; 6HR PCP:  0.01;                

HOULTON        CLOUDY    61  57  87 N6        29.63R                  
6HR MIN TEMP:  61; 6HR MAX TEMP:  62;                                

PRESQUE ISLE   CLOUDY    55  49  80 N7        29.69R                  
6HR MIN TEMP:  53; 6HR MAX TEMP:  59; 6HR PCP:  0.01;                

FRENCHVILLE    FAIR      56  43  61 NW13      29.69R                  
6HR MIN TEMP:  51; 6HR MAX TEMP:  58;                                

CARIBOU        CLOUDY    53  46  77 N7        29.68R                  
6HR MIN TEMP:  51; 6HR MAX TEMP:  60; 6HR PCP: TRACE;                

$$

NHZ002-005-008-009-011-012-014-261300-
NEW HAMPSHIRE
  
CITY           SKY/WX    TMP DP  RH WIND       PRES   REMARKS
PORTSMOUTH     PTSUNNY   72  54  53 SW9       29.70R                  
ROCHESTER      FAIR      72  54  53 VRB3      29.71R                  
6HR MIN TEMP:  63; 6HR MAX TEMP:  72;                                

NASHUA         FAIR      74  57  55 S3        29.75R                  
MANCHESTER     PTSUNNY   76  54  46 S5        29.72S                  
6HR MIN TEMP:  69; 6HR MAX TEMP:  76;                                

CONCORD        FAIR      71  57  61 CALM      29.74R                  
6HR MIN TEMP:  57; 6HR MAX TEMP:  71;                                

LACONIA        FAIR      71  59  65 W3        29.74S                  
PLYMOUTH       FAIR      70  55  59 W5        29.73S                  
BERLIN         PTSUNNY   67  59  75 CALM      29.72R                  
6HR MIN TEMP:  62; 6HR MAX TEMP:  67;                                

WHITEFIELD     PTSUNNY   67  59  75 CALM      29.73S                  
6HR MIN TEMP:  61; 6HR MAX TEMP:  67;                                

JAFFREY        FAIR      71  56  58 VRB7      29.79S                  
6HR MIN TEMP:  62; 6HR MAX TEMP:  71;                                

KEENE          FAIR      72  58  61 CALM      29.78R                  
LEBANON        PTSUNNY   69  60  73 CALM      29.74S                  
6HR MIN TEMP:  60; 6HR MAX TEMP:  69; 6HR PCP:  0.01;                

MT WASHINGTON  NOT AVBL                                               
$$

VTZ005-007-008-261300-
VERMONT
  
CITY           SKY/WX    TMP DP  RH WIND       PRES   REMARKS
ST JOHNSBURY     N/A     63  60  90 MISG      29.71S                  
MONTPELIER     LGT RAIN  66  62  87 W3        29.79R                  
BURLINGTON     CLOUDY    66  62  87 CALM      29.74R                  
$$

MAZ007-012-024-CTZ003-RIZ002-NYZ038-NYZ072-261300-
SOUTHERN NEW ENGLAND AND NY
  
CITY           SKY/WX    TMP DP  RH WIND       PRES   REMARKS
BOSTON         FAIR      74  60  61 SW15      29.75R                  
WORCESTER      FAIR      71  59  65 W15       29.80R                  
NANTUCKET      FAIR      61  58  90 SW17      29.82R                  
PROVIDENCE     FAIR      74  64  71 W8        29.80R                  
HARTFORD       FAIR      74  63  68 S6        29.80R                  
ALBANY         PTSUNNY   71  57  61 S7        29.79R                  
NEW YORK CITY  FAIR      77  65  66 SW10      29.82S                  
$$

ANZ081-ANZ082-ANZ150-NHZ014-MEZ023>029-261300-
COASTAL MARINE OBSERVATIONS
  
STATION/POSITION TIME  TEMP    WIND        PRES    WAVE
                       AIR SEA DIR/SP/G            HT/PER
                 (UTC) (F)     (DEG/KT/KT) (MB)    (FT/S)
MOUNT DESERT ROC 1200   54     240/ 18/ 18 1004.4R
MATINICUS ROCK   1200   57     250/ 19/ 20 1004.4R
ISLE OF SHOALS   1200   71     240/ 14/ 14 1005.8R
JEFFREYS LEDGE   1136      54                N/A     3/ 6
$$

.............KEY..............
   WCI - WIND CHILL
   TC  - TEMPERATURE IN CELSIUS
   VSB - VISIBILITY IN MILES
   HX  - HEAT INDEX
   FAIR- INDICATES FEW OR NO CLOUDS BELOW 12,000 FT, WITH NO 
         SIGNIFICANT WEATHER AND/OR OBSTRUCTIONS TO VISIBILITY.